Location: Bakov nad Jizerou
(50.4784°N, 14.9394°E)
Time: 09:18:59
(UTC+00:00)

Cosmos 2233 Rocket - Pass Details

Date: 16 June 2021
Orbit: 954 x 990 km, 82.9° (Epoch: 04 August)

Event Time Altitude Azimuth Distance (km) Brightness Sun altitude
Rises 21:39:53 0° 348° (NNW) 3,645 8.9 -14.0°
Reaches altitude 10° 21:42:23 10° 346° (NNW) 2,696 7.8 -14.1°
Maximum altitude 21:48:30 69° 265° (W) 1,027 4.2 -14.4°
Enters shadow 21:53:07 18° 186° (S) 2,150 5.2 -14.6°
